Find Starlink 37125

NORAD ID: 68276 Int'l Des: 2026-055 Owner: SPXS Country: US Constellation: starlink operational
LEOCIRCULAR

Live Position

Loading 3D Globe...

About Starlink 37125

Description loading...

Upcoming Passes

Passes for default location (London). Set your location on the main map for personalized predictions.

Altitude History

Loading altitude history...

Two-Line Element Set

1 68276U 26055Q 26124.11693032 .00065339 00000-0 14979-2 0 9995
2 68276 53.1603 62.0540 0001115 78.5953 281.5179 15.42165057 8413
Epoch: May 4, 2026 • Age: 12 hours

Current Status

Altitude 458.2 km
Velocity 7.64 km/s
Sub-Earth Point -51.77°S, 97.56°W
Launch Date Mar 19, 2026
Age 0.1 years
Type internet

Technical Details

Classification Payload
Mass 575.00 kg
Dry Mass 530.00 kg
Total Mass 575.00 kg
Length 0.30 m
Diameter 4.10 m
Span 29.00 m
Shape Box + pan
Manufacturer SPXS
Bus Type Starlink V2MO
Phase Status In Orbit
Owner/State SPXS/US

Most Searched